Tracking 32139 objects as of 17-Nov-2025
HD Live streaming from Space Station
objects crossing your sky now

STARLINK-35077

Track STARLINK-35077 now!
10-day predictions
STARLINK-35077 is classified as:


NORAD ID: 65529
Int'l Code: 2025-200K
Perigee: 555.7 km
Apogee: 557.6 km
Inclination: 97.6 °
Period: 95.6 minutes
Semi major axis: 6927 km
RCS: Unknown
Launch date: September 6, 2025
Source: United States (US)
Launch site: AIR FORCE EASTERN TEST RANGE (AFETR)
Your satellite tracking list
Your tracking list is empty




NASA's NSSDC Master Catalog

Two Line Element Set (TLE):
1 65529U 25200K   25320.60917589  .00016821  00000-0  11671-2 0  9999
2 65529  97.6056  28.3015 0001432  80.1785 279.9603 15.05652202 12119
Source of the keplerian elements: AFSPC